Location: Lavington
(51.2833°N, 1.9833°W)
Time: 10:04:01
(UTC+00:00)

Cosmos 2369 Rocket - Pass Details

Date: 01 June 2020
Orbit: 830 x 851 km, 71.0° (Epoch: 07 July)

Event Time Altitude Azimuth Distance (km) Brightness Sun altitude
Exits shadow 23:30:23 - 231° (SW) 3,198 4.9 -16.1°
Reaches altitude 10° 23:32:24 10° 236° (SW) 2,463 4.4 -16.1°
Maximum altitude 23:37:49 46° 309° (NW) 1,127 3.2 -16.2°
Drops below altitude 10° 23:43:15 10° 22° (NNE) 2,462 5.6 -16.3°
Sets 23:45:48 0° 29° (NNE) 3,397 6.3 -16.4°
